STARLINK-11197, 60186

Orbit data source: Space-Track

STARLINK-11197, 60186 is a payload satellite owned by SpaceX/Seattle (US) in LEO that was launched on Wed, 03 Jul 2024 UTC via an FALCON 9 launch vehicle from the Air Force Eastern Test Range (AFETR). Payload-class satellites include a variety of spacecraft equipped with specific instruments for various scientific and technological missions. These include communications satellites like Starlink; space stations such as the ISS; scientific satellites like the Hubble; Earth observation satellites from companies like Planet Labs, Umbra, and HawkEye 360; GPS; miniature CubeSats for education and research; and military/defense satellites.

Loading next visibility...
Identifier
60186, 2024-124D
Orbit
LEO
Last TLE update
16 hours ago
Origin
Manufacturer
SpaceX/Seattle
Mission
Operational Commercial Communications
Bus & Motor
STARLINK V2M, Unknown motor
Mass
730 kg wet, ~700 kg dry
Launch date (UTC)
2024-07-03 (1 year ago)
Launch vehicle
FALCON 9
Launch site
Air Force Eastern Test Range (AFETR)
Object type
Payload
Rocket body
Debris
Shape & HBR
Box + 2 Pan, 29 m
Radar Cross Section
36.964 m², Large (>1 m²)

Expand to show TLE details & history

TLE from 16 hours ago
0 STARLINK-11197
1 60186U 24124D   25189.68422088  .00003308  00000-0  32140-4 0  9995
2 60186  53.1584 283.8672 0001172  94.3338 265.7814 15.69718485 58219
Epoch: 2025-07-08T16:25Z
TLE epoch observation values (Epoch: 2025-07-08T16:25:16.684Z)
Latitude
0.00002°
Longitude
110.67202°
Altitude
360.676 km
Speed
7.694 km/s
True Right ascension
18h 55m 28s
True Declination
0° 00' 00"
Sunlit
Object was in full shadow at epoch
Visualization orbit readout
Latitude
43.29055°
Longitude
152.05631°
Altitude
363.356 km
Speed
7.697 km/s
Apparent Right ascension
02h 52m 03s
Apparent Declination
14° 46' 42"
Sunlit
Object is in daylight
Visualization observer readout
Local Sidereal Time
20:06:36
Azimuth
71.463° E
Elevation
1.008°
Doppler factor
1
Orbital elements
Apogee altitude
360.753 km
Perigee altitude
359.174 km
Semi-major axis
6,738.1 km
Eccentricity
0.00012
Inclination
53.1584°
RAAN
283.8672°
Arg. of periapsis
94.3338°
True anomaly
Unknown
Mean anomaly
265.7814°
Eccentric anomaly
Unknown
Mean motion
3.92407 °/min
Orbital period
91.74 mins
BSTAR
0.00003214
Loading maneuver chart data...
Loading SW <> Apogee altitude chart data...
Loading historical data...
Loading historical data...
Loading historical data...
Loading historical data...
Loading historical data...
Loading historical data...
Loading historical data...

STARLINK-11197 Visibility forecast

Observer location: undefined°, undefined°

Span
Click to sort rows by Start time (UTC) header in descending order
Start Az.
Max El. time (UTC)
Max El. Az.
Max El.
End time (UTC)
End Az.
4 mins2025-07-09 09:26:02.011Z250.139° W2025-07-09 09:28:02.011Z313.203° NW37.325°2025-07-09 09:30:02.011Z34.244° NE
4 mins2025-07-09 15:51:02.011Z308.22° NW2025-07-09 15:53:02.011Z154.676° SSE44.246°2025-07-09 15:55:02.011Z133.192° SE
|